Wetterdaten: Freitag, 05.07.2013
Datum Zeit Temperatur Luftfeuchte Luftdruck Regen Wind Richtung Richtung Taupunkt Windchill Windben
05.07.2013 00:00 14,6 C 94 % 1027,4 hPa 0,0 l/m 1,1 km/h (1 Bft) NO 45 13,6 C 14,6 C 0,0 km/h (0 Bft)
05.07.2013 00:05 14,6 C 94 % 1027,4 hPa 0,0 l/m 0,5 km/h (0 Bft) SO 135 13,6 C 14,6 C 1,6 km/h (1 Bft)
05.07.2013 00:10 14,5 C 94 % 1027,4 hPa 0,0 l/m 0,2 km/h (0 Bft) NO 45 13,5 C 14,5 C 0,0 km/h (0 Bft)
05.07.2013 00:15 14,5 C 94 % 1027,4 hPa 0,0 l/m 0,3 km/h (0 Bft) N-NO 22 13,5 C 14,5 C 0,0 km/h (0 Bft)
05.07.2013 00:20 14,5 C 94 % 1027,4 hPa 0,0 l/m 0,0 km/h (0 Bft) N-NO 22 13,5 C 14,5 C 0,0 km/h (0 Bft)
05.07.2013 00:25 14,5 C 94 % 1027,7 hPa 0,0 l/m 0,0 km/h (0 Bft) NO 45 13,5 C 14,5 C 1,6 km/h (1 Bft)
05.07.2013 00:30 14,4 C 94 % 1027,7 hPa 0,0 l/m 0,0 km/h (0 Bft) NO 45 13,4 C 14,4 C 0,0 km/h (0 Bft)
05.07.2013 00:35 14,4 C 94 % 1027,7 hPa 0,0 l/m 0,0 km/h (0 Bft) SW 225 13,4 C 14,4 C 0,0 km/h (0 Bft)
05.07.2013 00:40 14,4 C 94 % 1027,7 hPa 0,0 l/m 0,0 km/h (0 Bft) O 90 13,4 C 14,4 C 0,0 km/h (0 Bft)
05.07.2013 00:45 14,4 C 94 % 1027,6 hPa 0,0 l/m 0,0 km/h (0 Bft) S 180 13,4 C 14,4 C 1,6 km/h (1 Bft)
05.07.2013 00:50 14,4 C 94 % 1027,6 hPa 0,0 l/m 0,0 km/h (0 Bft) NO 45 13,4 C 14,4 C 0,0 km/h (0 Bft)
05.07.2013 00:55 14,4 C 94 % 1027,6 hPa 0,0 l/m 0,0 km/h (0 Bft) S 180 13,4 C 14,4 C 0,0 km/h (0 Bft)
05.07.2013 01:00 14,4 C 94 % 1027,6 hPa 0,0 l/m 0,0 km/h (0 Bft) O-SO 112 13,4 C 14,4 C 0,0 km/h (0 Bft)
05.07.2013 01:05 14,5 C 94 % 1027,6 hPa 0,0 l/m 0,0 km/h (0 Bft) O 90 13,5 C 14,4 C 0,0 km/h (0 Bft)
05.07.2013 01:10 14,5 C 94 % 1027,6 hPa 0,0 l/m 0,0 km/h (0 Bft) O 90 13,5 C 14,4 C 0,0 km/h (0 Bft)
05.07.2013 01:15 14,5 C 94 % 1027,6 hPa 0,0 l/m 0,0 km/h (0 Bft) O 90 13,5 C 14,4 C 0,0 km/h (0 Bft)
05.07.2013 01:20 14,4 C 94 % 1027,6 hPa 0,0 l/m 0,0 km/h (0 Bft) W-SW 247 13,4 C 14,4 C 0,0 km/h (0 Bft)
05.07.2013 01:25 14,4 C 94 % 1027,6 hPa 0,0 l/m 0,2 km/h (0 Bft) SW 225 13,4 C 14,4 C 2,1 km/h (1 Bft)
05.07.2013 01:30 14,3 C 94 % 1027,6 hPa 0,0 l/m 1,4 km/h (1 Bft) SW 225 13,3 C 14,3 C 5,5 km/h (1 Bft)
05.07.2013 01:35 14,3 C 94 % 1027,6 hPa 0,0 l/m 2,4 km/h (1 Bft) W-NW 292 13,3 C 14,3 C 0,0 km/h (0 Bft)
05.07.2013 01:40 14,2 C 94 % 1027,6 hPa 0,0 l/m 1,1 km/h (1 Bft) NO 45 13,2 C 14,3 C 0,0 km/h (0 Bft)
05.07.2013 01:45 14,2 C 94 % 1027,6 hPa 0,0 l/m 0,2 km/h (0 Bft) NO 45 13,2 C 14,2 C 0,0 km/h (0 Bft)
05.07.2013 01:50 14,2 C 94 % 1027,6 hPa 0,0 l/m 0,0 km/h (0 Bft) O-SO 112 13,2 C 14,1 C 1,6 km/h (1 Bft)
05.07.2013 01:55 14,1 C 94 % 1027,6 hPa 0,0 l/m 0,0 km/h (0 Bft) O-NO 67 13,1 C 14,1 C 0,0 km/h (0 Bft)
05.07.2013 02:00 14,2 C 94 % 1027,6 hPa 0,0 l/m 0,0 km/h (0 Bft) SO 135 13,2 C 14,1 C 0,0 km/h (0 Bft)
05.07.2013 02:05 14,2 C 94 % 1027,6 hPa 0,0 l/m 0,0 km/h (0 Bft) S-SO 157 13,2 C 14,1 C 2,4 km/h (1 Bft)
05.07.2013 02:10 14,2 C 94 % 1027,6 hPa 0,0 l/m 0,0 km/h (0 Bft) O-SO 112 13,2 C 14,2 C 0,0 km/h (0 Bft)
05.07.2013 02:15 14,2 C 94 % 1027,6 hPa 0,0 l/m 0,0 km/h (0 Bft) SO 135 13,2 C 14,2 C 0,0 km/h (0 Bft)
05.07.2013 02:20 14,2 C 94 % 1027,6 hPa 0,0 l/m 0,0 km/h (0 Bft) S 180 13,2 C 14,2 C 0,0 km/h (0 Bft)
05.07.2013 02:25 14,2 C 95 % 1027,6 hPa 0,0 l/m 0,0 km/h (0 Bft) O-NO 67 13,4 C 14,2 C 0,0 km/h (0 Bft)
05.07.2013 02:30 14,2 C 95 % 1027,6 hPa 0,0 l/m 0,0 km/h (0 Bft) NO 45 13,4 C 14,2 C 0,0 km/h (0 Bft)
05.07.2013 02:35 14,2 C 95 % 1027,6 hPa 0,0 l/m 0,0 km/h (0 Bft) W-SW 247 13,4 C 14,2 C 0,0 km/h (0 Bft)
05.07.2013 02:40 14,2 C 95 % 1027,6 hPa 0,0 l/m 0,0 km/h (0 Bft) O 90 13,4 C 14,2 C 0,0 km/h (0 Bft)
05.07.2013 02:45 14,2 C 95 % 1027,6 hPa 0,0 l/m 0,0 km/h (0 Bft) O 90 13,4 C 14,2 C 0,0 km/h (0 Bft)
05.07.2013 02:50 14,2 C 95 % 1027,6 hPa 0,0 l/m 0,0 km/h (0 Bft) O 90 13,4 C 14,2 C 0,0 km/h (0 Bft)
05.07.2013 02:55 14,2 C 95 % 1027,6 hPa 0,0 l/m 0,0 km/h (0 Bft) O 90 13,4 C 14,1 C 0,0 km/h (0 Bft)
05.07.2013 03:00 14,2 C 95 % 1027,6 hPa 0,0 l/m 0,0 km/h (0 Bft) O 90 13,4 C 14,1 C 0,0 km/h (0 Bft)
05.07.2013 03:05 14,1 C 95 % 1027,6 hPa 0,0 l/m 0,0 km/h (0 Bft) O-NO 67 13,3 C 14,1 C 0,0 km/h (0 Bft)
05.07.2013 03:10 14,2 C 95 % 1027,6 hPa 0,0 l/m 0,0 km/h (0 Bft) O 90 13,4 C 14,1 C 0,0 km/h (0 Bft)
05.07.2013 03:15 14,2 C 95 % 1027,6 hPa 0,0 l/m 0,0 km/h (0 Bft) NO 45 13,4 C 14,1 C 0,0 km/h (0 Bft)
05.07.2013 03:20 14,2 C 95 % 1027,6 hPa 0,0 l/m 0,0 km/h (0 Bft) O-NO 67 13,4 C 14,1 C 0,0 km/h (0 Bft)
05.07.2013 03:25 14,2 C 95 % 1027,6 hPa 0,0 l/m 0,0 km/h (0 Bft) O 90 13,4 C 14,2 C 0,0 km/h (0 Bft)
05.07.2013 03:30 14,2 C 95 % 1027,6 hPa 0,0 l/m 0,0 km/h (0 Bft) O 90 13,4 C 14,2 C 0,0 km/h (0 Bft)
05.07.2013 03:35 14,2 C 95 % 1027,6 hPa 0,0 l/m 0,0 km/h (0 Bft) NO 45 13,4 C 14,2 C 0,0 km/h (0 Bft)
05.07.2013 03:40 14,2 C 95 % 1027,6 hPa 0,0 l/m 0,0 km/h (0 Bft) O 90 13,4 C 14,2 C 0,0 km/h (0 Bft)
05.07.2013 03:45 14,2 C 95 % 1027,6 hPa 0,0 l/m 0,0 km/h (0 Bft) O 90 13,4 C 14,2 C 0,0 km/h (0 Bft)
05.07.2013 03:50 14,2 C 95 % 1027,6 hPa 0,0 l/m 0,0 km/h (0 Bft) SO 135 13,4 C 14,2 C 0,0 km/h (0 Bft)
05.07.2013 03:55 14,2 C 95 % 1027,6 hPa 0,0 l/m 0,0 km/h (0 Bft) NO 45 13,4 C 14,2 C 0,0 km/h (0 Bft)
05.07.2013 04:00 14,1 C 95 % 1027,6 hPa 0,0 l/m 0,0 km/h (0 Bft) O 90 13,3 C 14,2 C 0,0 km/h (0 Bft)
05.07.2013 04:05 14,1 C 95 % 1027,4 hPa 0,0 l/m 0,0 km/h (0 Bft) O 90 13,3 C 14,1 C 0,0 km/h (0 Bft)
05.07.2013 04:10 14,1 C 95 % 1027,4 hPa 0,0 l/m 0,0 km/h (0 Bft) NO 45 13,3 C 14,1 C 0,0 km/h (0 Bft)
05.07.2013 04:15 14,1 C 95 % 1027,4 hPa 0,0 l/m 0,0 km/h (0 Bft) NO 45 13,3 C 14,1 C 0,0 km/h (0 Bft)
05.07.2013 04:20 14,1 C 95 % 1027,4 hPa 0,0 l/m 0,0 km/h (0 Bft) SO 135 13,3 C 14,1 C 0,0 km/h (0 Bft)
05.07.2013 04:25 14,1 C 95 % 1027,4 hPa 0,0 l/m 0,0 km/h (0 Bft) SO 135 13,3 C 14,1 C 0,0 km/h (0 Bft)
05.07.2013 04:30 14,1 C 95 % 1027,4 hPa 0,0 l/m 0,0 km/h (0 Bft) O-SO 112 13,3 C 14,0 C 0,0 km/h (0 Bft)
05.07.2013 04:35 14,1 C 95 % 1027,4 hPa 0,0 l/m 0,0 km/h (0 Bft) O-SO 112 13,3 C 14,0 C 0,0 km/h (0 Bft)
05.07.2013 04:40 14,1 C 95 % 1027,4 hPa 0,0 l/m 0,0 km/h (0 Bft) O-SO 112 13,3 C 14,0 C 0,0 km/h (0 Bft)
05.07.2013 04:45 14,1 C 95 % 1027,6 hPa 0,0 l/m 0,0 km/h (0 Bft) O-SO 112 13,3 C 14,0 C 0,0 km/h (0 Bft)
05.07.2013 04:50 14,0 C 95 % 1027,6 hPa 0,0 l/m 0,0 km/h (0 Bft) O 90 13,2 C 14,0 C 0,0 km/h (0 Bft)
05.07.2013 04:55 14,0 C 95 % 1027,6 hPa 0,0 l/m 0,0 km/h (0 Bft) SO 135 13,2 C 14,0 C 0,0 km/h (0 Bft)
05.07.2013 05:00 14,1 C 95 % 1027,6 hPa 0,0 l/m 0,0 km/h (0 Bft) SO 135 13,3 C 14,0 C 0,0 km/h (0 Bft)
05.07.2013 05:05 14,1 C 95 % 1027,8 hPa 0,0 l/m 0,0 km/h (0 Bft) S-SO 157 13,3 C 14,0 C 0,0 km/h (0 Bft)
05.07.2013 05:10 14,2 C 95 % 1027,8 hPa 0,0 l/m 0,0 km/h (0 Bft) S 180 13,4 C 14,1 C 0,0 km/h (0 Bft)
05.07.2013 05:15 14,1 C 95 % 1027,8 hPa 0,0 l/m 0,0 km/h (0 Bft) S 180 13,3 C 14,1 C 0,0 km/h (0 Bft)
05.07.2013 05:20 14,1 C 95 % 1027,8 hPa 0,0 l/m 0,0 km/h (0 Bft) SO 135 13,3 C 14,1 C 0,0 km/h (0 Bft)
05.07.2013 05:25 14,1 C 95 % 1027,8 hPa 0,0 l/m 0,0 km/h (0 Bft) S-SO 157 13,3 C 14,1 C 0,0 km/h (0 Bft)
05.07.2013 05:30 14,0 C 95 % 1027,8 hPa 1,4 l/m 0,0 km/h (0 Bft) O 90 13,2 C 14,1 C 0,0 km/h (0 Bft)
05.07.2013 05:35 14,0 C 95 % 1027,8 hPa 0,0 l/m 0,0 km/h (0 Bft) O-SO 112 13,2 C 14,0 C 0,0 km/h (0 Bft)
05.07.2013 05:40 14,0 C 95 % 1027,8 hPa 1,4 l/m 0,0 km/h (0 Bft) O-SO 112 13,2 C 14,0 C 0,0 km/h (0 Bft)
05.07.2013 05:45 14,0 C 95 % 1027,9 hPa 0,7 l/m 0,0 km/h (0 Bft) O-SO 112 13,2 C 14,0 C 0,0 km/h (0 Bft)
05.07.2013 05:50 14,0 C 95 % 1027,9 hPa 0,7 l/m 0,0 km/h (0 Bft) S 180 13,2 C 14,0 C 0,0 km/h (0 Bft)
05.07.2013 05:55 14,0 C 95 % 1027,9 hPa 0,7 l/m 0,0 km/h (0 Bft) S 180 13,2 C 14,0 C 0,0 km/h (0 Bft)
05.07.2013 06:00 14,0 C 95 % 1027,9 hPa 0,7 l/m 0,2 km/h (0 Bft) N-NO 22 13,2 C 14,0 C 2,3 km/h (1 Bft)
05.07.2013 06:05 14,0 C 95 % 1028,0 hPa 1,4 l/m 0,3 km/h (0 Bft) O-NO 67 13,2 C 14,0 C 0,0 km/h (0 Bft)
05.07.2013 06:10 14,0 C 95 % 1028,0 hPa 0,7 l/m 0,3 km/h (0 Bft) N-NO 22 13,2 C 14,0 C 0,0 km/h (0 Bft)
05.07.2013 06:15 14,1 C 95 % 1028,0 hPa 0,7 l/m 0,0 km/h (0 Bft) SO 135 13,3 C 14,1 C 0,0 km/h (0 Bft)
05.07.2013 06:20 14,1 C 95 % 1028,0 hPa 0,7 l/m 0,0 km/h (0 Bft) SO 135 13,3 C 14,1 C 0,0 km/h (0 Bft)
05.07.2013 06:25 14,1 C 95 % 1027,9 hPa 0,0 l/m 0,0 km/h (0 Bft) O-SO 112 13,3 C 14,1 C 0,0 km/h (0 Bft)
05.07.2013 06:30 14,1 C 95 % 1027,9 hPa 0,7 l/m 0,0 km/h (0 Bft) SO 135 13,3 C 14,2 C 0,0 km/h (0 Bft)
05.07.2013 06:35 14,1 C 95 % 1027,9 hPa 0,0 l/m 0,0 km/h (0 Bft) SO 135 13,3 C 14,2 C 0,0 km/h (0 Bft)
05.07.2013 06:40 14,1 C 95 % 1027,9 hPa 0,0 l/m 0,2 km/h (0 Bft) S-SW 202 13,3 C 14,2 C 3,1 km/h (1 Bft)
05.07.2013 06:45 14,1 C 95 % 1028,2 hPa 0,0 l/m 1,0 km/h (0 Bft) W-SW 247 13,3 C 14,1 C 4,2 km/h (1 Bft)
05.07.2013 06:50 13,9 C 95 % 1028,2 hPa 0,7 l/m 1,4 km/h (1 Bft) S 180 13,1 C 14,0 C 6,9 km/h (2 Bft)
05.07.2013 06:55 13,8 C 95 % 1028,2 hPa 0,0 l/m 1,0 km/h (0 Bft) W-SW 247 13,0 C 14,0 C 2,1 km/h (1 Bft)
05.07.2013 07:00 13,7 C 95 % 1028,2 hPa 0,7 l/m 0,8 km/h (0 Bft) SO 135 12,9 C 13,8 C 0,0 km/h (0 Bft)
05.07.2013 07:05 13,7 C 95 % 1028,3 hPa 0,0 l/m 0,8 km/h (0 Bft) W-SW 247 12,9 C 13,7 C 0,0 km/h (0 Bft)
05.07.2013 07:10 13,6 C 95 % 1028,3 hPa 1,4 l/m 0,0 km/h (0 Bft) S 180 12,8 C 13,7 C 0,0 km/h (0 Bft)
05.07.2013 07:15 13,6 C 95 % 1028,3 hPa 0,0 l/m 0,0 km/h (0 Bft) SO 135 12,8 C 13,7 C 0,0 km/h (0 Bft)
05.07.2013 07:20 13,6 C 95 % 1028,3 hPa 0,7 l/m 0,0 km/h (0 Bft) SO 135 12,8 C 13,7 C 0,0 km/h (0 Bft)
05.07.2013 07:25 13,6 C 95 % 1028,4 hPa 0,0 l/m 0,2 km/h (0 Bft) SO 135 12,8 C 13,7 C 0,0 km/h (0 Bft)
05.07.2013 07:30 13,7 C 95 % 1028,4 hPa 0,7 l/m 0,2 km/h (0 Bft) SO 135 12,9 C 13,8 C 0,0 km/h (0 Bft)
05.07.2013 07:35 13,8 C 95 % 1028,4 hPa 0,0 l/m 0,0 km/h (0 Bft) SO 135 13,0 C 13,9 C 0,0 km/h (0 Bft)
05.07.2013 07:40 13,8 C 95 % 1028,4 hPa 0,0 l/m 0,0 km/h (0 Bft) SO 135 13,0 C 14,0 C 0,0 km/h (0 Bft)
05.07.2013 07:45 13,8 C 95 % 1028,5 hPa 0,0 l/m 0,0 km/h (0 Bft) SO 135 13,0 C 14,0 C 0,0 km/h (0 Bft)
05.07.2013 07:50 13,8 C 95 % 1028,5 hPa 0,7 l/m 0,0 km/h (0 Bft) O-SO 112 13,0 C 14,0 C 0,0 km/h (0 Bft)
05.07.2013 07:55 13,9 C 95 % 1028,5 hPa 0,0 l/m 0,0 km/h (0 Bft) O-SO 112 13,1 C 14,1 C 0,0 km/h (0 Bft)
05.07.2013 08:00 14,0 C 95 % 1028,5 hPa 0,0 l/m 0,0 km/h (0 Bft) O-SO 112 13,2 C 14,3 C 0,0 km/h (0 Bft)
05.07.2013 08:05 14,1 C 95 % 1028,4 hPa 0,0 l/m 0,0 km/h (0 Bft) S-SO 157 13,3 C 14,3 C 0,0 km/h (0 Bft)
05.07.2013 08:10 14,1 C 95 % 1028,4 hPa 0,7 l/m 0,0 km/h (0 Bft) SO 135 13,3 C 14,3 C 0,0 km/h (0 Bft)
05.07.2013 08:15 14,2 C 95 % 1028,4 hPa 0,0 l/m 0,0 km/h (0 Bft) O-SO 112 13,4 C 14,4 C 0,0 km/h (0 Bft)
05.07.2013 08:20 14,3 C 95 % 1028,4 hPa 0,0 l/m 0,0 km/h (0 Bft) O-SO 112 13,5 C 14,5 C 0,0 km/h (0 Bft)
05.07.2013 08:25 14,4 C 95 % 1028,8 hPa 0,0 l/m 0,0 km/h (0 Bft) O-SO 112 13,6 C 14,6 C 0,0 km/h (0 Bft)
05.07.2013 08:30 14,4 C 95 % 1028,8 hPa 0,0 l/m 0,0 km/h (0 Bft) O-SO 112 13,6 C 14,6 C 0,0 km/h (0 Bft)
05.07.2013 08:35 14,4 C 95 % 1028,8 hPa 0,0 l/m 0,0 km/h (0 Bft) O-SO 112 13,6 C 14,7 C 0,0 km/h (0 Bft)
05.07.2013 08:40 14,5 C 95 % 1028,8 hPa 0,0 l/m 0,0 km/h (0 Bft) O-SO 112 13,7 C 14,6 C 0,0 km/h (0 Bft)
05.07.2013 08:45 14,5 C 95 % 1028,8 hPa 0,0 l/m 0,0 km/h (0 Bft) O 90 13,7 C 14,7 C 0,0 km/h (0 Bft)
05.07.2013 08:50 14,3 C 95 % 1028,8 hPa 0,0 l/m 0,5 km/h (0 Bft) NO 45 13,5 C 14,6 C 1,9 km/h (1 Bft)
05.07.2013 08:55 14,3 C 95 % 1028,8 hPa 0,0 l/m 1,4 km/h (1 Bft) NO 45 13,5 C 14,4 C 1,6 km/h (1 Bft)
05.07.2013 09:00 14,3 C 95 % 1028,8 hPa 0,0 l/m 1,4 km/h (1 Bft) NO 45 13,5 C 14,4 C 0,0 km/h (0 Bft)
05.07.2013 09:05 14,2 C 95 % 1028,9 hPa 0,0 l/m 0,8 km/h (0 Bft) O-NO 67 13,4 C 14,4 C 0,0 km/h (0 Bft)
05.07.2013 09:10 14,2 C 95 % 1028,9 hPa 0,0 l/m 1,0 km/h (0 Bft) O 90 13,4 C 14,4 C 3,4 km/h (1 Bft)
05.07.2013 09:15 14,2 C 95 % 1028,9 hPa 0,0 l/m 1,1 km/h (1 Bft) NO 45 13,4 C 14,3 C 0,0 km/h (0 Bft)
05.07.2013 09:20 14,1 C 95 % 1028,9 hPa 0,0 l/m 1,3 km/h (1 Bft) W-NW 292 13,3 C 14,3 C 0,0 km/h (0 Bft)
05.07.2013 09:25 14,2 C 95 % 1029,1 hPa 0,0 l/m 1,0 km/h (0 Bft) O 90 13,4 C 14,3 C 0,0 km/h (0 Bft)
05.07.2013 09:30 14,3 C 95 % 1029,1 hPa 0,0 l/m 0,2 km/h (0 Bft) N-NO 22 13,5 C 14,4 C 1,6 km/h (1 Bft)
05.07.2013 09:35 14,2 C 95 % 1029,1 hPa 0,0 l/m 0,2 km/h (0 Bft) O-SO 112 13,4 C 14,4 C 0,0 km/h (0 Bft)
05.07.2013 09:40 14,2 C 95 % 1029,1 hPa 0,0 l/m 0,0 km/h (0 Bft) NO 45 13,4 C 14,5 C 0,0 km/h (0 Bft)
05.07.2013 09:45 14,2 C 95 % 1028,8 hPa 0,0 l/m 0,2 km/h (0 Bft) O 90 13,4 C 14,4 C 1,9 km/h (1 Bft)
05.07.2013 09:50 14,2 C 95 % 1028,8 hPa 0,0 l/m 0,2 km/h (0 Bft) O-NO 67 13,4 C 14,4 C 0,0 km/h (0 Bft)
05.07.2013 09:55 14,2 C 95 % 1028,8 hPa 0,0 l/m 0,2 km/h (0 Bft) N 360 13,4 C 14,4 C 0,0 km/h (0 Bft)
05.07.2013 10:00 14,1 C 95 % 1028,8 hPa 0,0 l/m 0,5 km/h (0 Bft) N-NO 22 13,3 C 14,4 C 1,6 km/h (1 Bft)
05.07.2013 10:05 14,1 C 95 % 1029,4 hPa 0,0 l/m 1,0 km/h (0 Bft) NO 45 13,3 C 14,3 C 2,4 km/h (1 Bft)
05.07.2013 10:10 14,0 C 95 % 1029,4 hPa 0,0 l/m 0,8 km/h (0 Bft) O-NO 67 13,2 C 14,3 C 0,0 km/h (0 Bft)
05.07.2013 10:15 14,2 C 95 % 1029,4 hPa 0,0 l/m 0,5 km/h (0 Bft) NO 45 13,4 C 14,3 C 0,0 km/h (0 Bft)
05.07.2013 10:20 14,5 C 95 % 1029,4 hPa 0,0 l/m 0,0 km/h (0 Bft) N-NO 22 13,7 C 14,6 C 0,0 km/h (0 Bft)
05.07.2013 10:25 14,6 C 95 % 1029,3 hPa 0,0 l/m 0,0 km/h (0 Bft) N 360 13,8 C 14,8 C 0,0 km/h (0 Bft)
05.07.2013 10:30 14,7 C 95 % 1029,3 hPa 0,0 l/m 0,0 km/h (0 Bft) N-NO 22 13,9 C 15,0 C 0,0 km/h (0 Bft)
05.07.2013 10:35 14,7 C 95 % 1029,3 hPa 0,0 l/m 0,0 km/h (0 Bft) N 360 13,9 C 15,1 C 0,0 km/h (0 Bft)
05.07.2013 10:40 14,9 C 95 % 1029,3 hPa 0,0 l/m 0,0 km/h (0 Bft) W-SW 247 14,1 C 15,2 C 0,0 km/h (0 Bft)
05.07.2013 10:45 14,9 C 95 % 1029,4 hPa 0,0 l/m 0,0 km/h (0 Bft) W-SW 247 14,1 C 15,2 C 0,0 km/h (0 Bft)
05.07.2013 10:50 15,1 C 95 % 1029,4 hPa 0,0 l/m 0,0 km/h (0 Bft) W-SW 247 14,3 C 15,2 C 0,0 km/h (0 Bft)
05.07.2013 10:55 15,2 C 95 % 1029,4 hPa 0,0 l/m 0,0 km/h (0 Bft) W-SW 247 14,4 C 15,4 C 0,0 km/h (0 Bft)
05.07.2013 11:00 15,3 C 95 % 1029,4 hPa 0,0 l/m 0,0 km/h (0 Bft) SW 225 14,5 C 15,6 C 0,0 km/h (0 Bft)
05.07.2013 11:05 15,4 C 95 % 1029,7 hPa 0,0 l/m 0,0 km/h (0 Bft) W-SW 247 14,6 C 15,7 C 0,0 km/h (0 Bft)
05.07.2013 11:10 15,2 C 95 % 1029,7 hPa 0,0 l/m 0,0 km/h (0 Bft) W-SW 247 14,4 C 15,7 C 0,0 km/h (0 Bft)
05.07.2013 11:15 15,4 C 95 % 1029,7 hPa 0,0 l/m 0,2 km/h (0 Bft) SW 225 14,6 C 15,9 C 0,0 km/h (0 Bft)
05.07.2013 11:20 15,5 C 95 % 1029,7 hPa 0,0 l/m 0,2 km/h (0 Bft) W-SW 247 14,7 C 16,2 C 0,0 km/h (0 Bft)
05.07.2013 11:25 15,6 C 95 % 1029,6 hPa 0,0 l/m 0,2 km/h (0 Bft) N-NW 337 14,8 C 16,6 C 0,0 km/h (0 Bft)
05.07.2013 11:30 15,5 C 95 % 1029,6 hPa 0,0 l/m 0,6 km/h (0 Bft) O-NO 67 14,7 C 17,2 C 0,0 km/h (0 Bft)
05.07.2013 11:35 15,7 C 95 % 1029,6 hPa 0,0 l/m 0,6 km/h (0 Bft) W-SW 247 14,9 C 17,3 C 0,0 km/h (0 Bft)
05.07.2013 11:40 15,6 C 95 % 1029,6 hPa 0,0 l/m 0,2 km/h (0 Bft) W-NW 292 14,8 C 17,2 C 0,0 km/h (0 Bft)
05.07.2013 11:45 15,7 C 95 % 1029,9 hPa 0,0 l/m 0,3 km/h (0 Bft) W-NW 292 14,9 C 17,2 C 0,0 km/h (0 Bft)
05.07.2013 11:50 15,5 C 94 % 1029,9 hPa 0,0 l/m 0,0 km/h (0 Bft) SO 135 14,5 C 17,2 C 0,0 km/h (0 Bft)
05.07.2013 11:55 15,7 C 94 % 1029,9 hPa 0,0 l/m 0,0 km/h (0 Bft) NO 45 14,7 C 17,3 C 0,0 km/h (0 Bft)
05.07.2013 12:00 15,9 C 94 % 1029,9 hPa 0,0 l/m 0,0 km/h (0 Bft) O 90 14,9 C 17,7 C 0,0 km/h (0 Bft)
05.07.2013 12:05 15,8 C 94 % 1030,0 hPa 0,0 l/m 0,2 km/h (0 Bft) N-NO 22 14,8 C 17,9 C 0,0 km/h (0 Bft)
05.07.2013 12:10 15,8 C 94 % 1030,0 hPa 0,0 l/m 0,5 km/h (0 Bft) O 90 14,8 C 17,8 C 0,0 km/h (0 Bft)
05.07.2013 12:15 16,0 C 93 % 1030,0 hPa 0,0 l/m 1,0 km/h (0 Bft) N-NW 337 14,9 C 18,0 C 2,3 km/h (1 Bft)
05.07.2013 12:20 16,5 C 93 % 1030,0 hPa 0,0 l/m 1,4 km/h (1 Bft) N 360 15,4 C 18,1 C 1,9 km/h (1 Bft)
05.07.2013 12:25 16,4 C 93 % 1030,2 hPa 0,0 l/m 2,3 km/h (1 Bft) N-NW 337 15,3 C 18,3 C 2,7 km/h (1 Bft)
05.07.2013 12:30 16,8 C 92 % 1030,2 hPa 0,0 l/m 2,4 km/h (1 Bft) O 90 15,5 C 18,5 C 0,0 km/h (0 Bft)
05.07.2013 12:35 17,5 C 92 % 1030,2 hPa 0,0 l/m 2,1 km/h (1 Bft) S-SW 202 16,2 C 19,1 C 4,5 km/h (1 Bft)
05.07.2013 12:40 18,0 C 91 % 1030,2 hPa 0,0 l/m 2,6 km/h (1 Bft) S-SO 157 16,5 C 19,8 C 2,3 km/h (1 Bft)
05.07.2013 12:45 18,9 C 90 % 1030,3 hPa 0,0 l/m 2,4 km/h (1 Bft) W 270 17,2 C 20,8 C 2,4 km/h (1 Bft)
05.07.2013 12:50 18,8 C 88 % 1030,3 hPa 0,0 l/m 2,1 km/h (1 Bft) NW 315 16,8 C 22,2 C 3,7 km/h (1 Bft)
05.07.2013 12:55 18,6 C 87 % 1030,3 hPa 0,0 l/m 3,1 km/h (1 Bft) W-NW 292 16,4 C 22,2 C 5,5 km/h (1 Bft)
05.07.2013 13:00 18,3 C 87 % 1030,3 hPa 0,0 l/m 3,4 km/h (1 Bft) N 360 16,1 C 22,0 C 6,3 km/h (2 Bft)
05.07.2013 13:05 18,1 C 86 % 1030,2 hPa 0,0 l/m 3,9 km/h (1 Bft) W-NW 292 15,7 C 21,9 C 6,6 km/h (2 Bft)
05.07.2013 13:10 18,5 C 86 % 1030,2 hPa 0,0 l/m 4,3 km/h (1 Bft) N-NO 22 16,1 C 21,6 C 7,1 km/h (2 Bft)
05.07.2013 13:15 18,5 C 86 % 1030,2 hPa 0,0 l/m 4,0 km/h (1 Bft) NO 45 16,1 C 21,7 C 5,0 km/h (1 Bft)
05.07.2013 13:20 18,5 C 86 % 1030,2 hPa 0,0 l/m 3,7 km/h (1 Bft) N-NW 337 16,1 C 21,8 C 7,2 km/h (2 Bft)
05.07.2013 13:25 18,6 C 86 % 1030,2 hPa 0,0 l/m 3,5 km/h (1 Bft) N-NO 22 16,2 C 22,1 C 5,1 km/h (1 Bft)
05.07.2013 13:30 18,8 C 86 % 1030,2 hPa 0,0 l/m 3,2 km/h (1 Bft) W-SW 247 16,4 C 22,2 C 7,7 km/h (2 Bft)
05.07.2013 13:35 18,7 C 86 % 1030,2 hPa 0,0 l/m 3,2 km/h (1 Bft) N-NW 337 16,3 C 22,4 C 6,4 km/h (2 Bft)
05.07.2013 13:40 18,7 C 86 % 1030,2 hPa 0,0 l/m 2,6 km/h (1 Bft) NW 315 16,3 C 22,6 C 8,9 km/h (2 Bft)
05.07.2013 13:45 18,7 C 86 % 1030,4 hPa 0,0 l/m 2,7 km/h (1 Bft) N 360 16,3 C 22,8 C 7,4 km/h (2 Bft)
05.07.2013 13:50 18,3 C 85 % 1030,4 hPa 0,0 l/m 3,5 km/h (1 Bft) N 360 15,7 C 22,4 C 6,1 km/h (2 Bft)
05.07.2013 13:55 18,3 C 85 % 1030,4 hPa 0,0 l/m 3,9 km/h (1 Bft) N 360 15,7 C 22,2 C 3,7 km/h (1 Bft)
05.07.2013 14:00 19,1 C 86 % 1030,4 hPa 0,0 l/m 2,9 km/h (1 Bft) N-NW 337 16,7 C 22,3 C 1,6 km/h (1 Bft)
05.07.2013 14:05 19,0 C 86 % 1030,2 hPa 0,0 l/m 2,3 km/h (1 Bft) N-NW 337 16,6 C 22,6 C 2,3 km/h (1 Bft)
05.07.2013 14:10 18,8 C 85 % 1030,2 hPa 0,0 l/m 2,4 km/h (1 Bft) N-NW 337 16,2 C 23,0 C 6,0 km/h (2 Bft)
05.07.2013 14:15 19,0 C 85 % 1030,2 hPa 0,0 l/m 2,7 km/h (1 Bft) NO 45 16,4 C 22,8 C 0,0 km/h (0 Bft)
05.07.2013 14:20 19,3 C 86 % 1030,2 hPa 0,0 l/m 2,7 km/h (1 Bft) N-NW 337 16,9 C 22,9 C 3,5 km/h (1 Bft)
05.07.2013 14:25 19,2 C 85 % 1030,2 hPa 0,0 l/m 2,9 km/h (1 Bft) W 270 16,6 C 22,8 C 6,4 km/h (2 Bft)
05.07.2013 14:30 19,3 C 85 % 1030,2 hPa 0,0 l/m 3,7 km/h (1 Bft) W 270 16,7 C 22,4 C 3,1 km/h (1 Bft)
05.07.2013 14:35 19,4 C 85 % 1030,2 hPa 0,0 l/m 3,5 km/h (1 Bft) W 270 16,8 C 22,4 C 4,5 km/h (1 Bft)
05.07.2013 14:40 19,6 C 85 % 1030,2 hPa 0,0 l/m 2,7 km/h (1 Bft) W-NW 292 17,0 C 22,6 C 3,2 km/h (1 Bft)
05.07.2013 14:45 19,5 C 84 % 1030,7 hPa 0,0 l/m 3,1 km/h (1 Bft) N-NW 337 16,7 C 22,6 C 2,7 km/h (1 Bft)
05.07.2013 14:50 19,9 C 86 % 1030,7 hPa 0,0 l/m 2,3 km/h (1 Bft) N 360 17,5 C 22,8 C 2,7 km/h (1 Bft)
05.07.2013 14:55 20,4 C 85 % 1030,7 hPa 0,0 l/m 1,9 km/h (1 Bft) N-NW 337 17,8 C 23,0 C 4,8 km/h (1 Bft)
05.07.2013 15:00 20,4 C 85 % 1030,7 hPa 0,0 l/m 1,8 km/h (1 Bft) N-NO 22 17,8 C 22,9 C 1,9 km/h (1 Bft)
05.07.2013 15:05 20,2 C 79 % 1030,3 hPa 0,0 l/m 1,6 km/h (1 Bft) W-NW 292 16,4 C 23,2 C 2,6 km/h (1 Bft)
05.07.2013 15:10 20,8 C 84 % 1030,3 hPa 0,0 l/m 1,9 km/h (1 Bft) W-SW 247 18,0 C 23,1 C 1,9 km/h (1 Bft)
05.07.2013 15:15 20,9 C 84 % 1030,3 hPa 0,0 l/m 1,9 km/h (1 Bft) NW 315 18,1 C 23,2 C 2,7 km/h (1 Bft)
05.07.2013 15:20 20,7 C 84 % 1030,3 hPa 0,0 l/m 1,6 km/h (1 Bft) O-SO 112 17,9 C 23,2 C 0,0 km/h (0 Bft)
05.07.2013 15:25 20,5 C 83 % 1030,2 hPa 0,0 l/m 2,3 km/h (1 Bft) W-NW 292 17,5 C 23,2 C 3,9 km/h (1 Bft)
05.07.2013 15:30 20,3 C 83 % 1030,2 hPa 0,0 l/m 1,8 km/h (1 Bft) NO 45 17,3 C 22,8 C 1,6 km/h (1 Bft)
05.07.2013 15:35 20,3 C 85 % 1030,2 hPa 0,0 l/m 1,8 km/h (1 Bft) W-SW 247 17,7 C 22,9 C 3,9 km/h (1 Bft)
05.07.2013 15:40 20,3 C 80 % 1030,2 hPa 0,0 l/m 2,1 km/h (1 Bft) W-SW 247 16,7 C 22,7 C 2,3 km/h (1 Bft)
05.07.2013 15:45 20,1 C 80 % 1030,2 hPa 0,0 l/m 2,9 km/h (1 Bft) O 90 16,5 C 22,6 C 3,4 km/h (1 Bft)
05.07.2013 15:50 20,4 C 81 % 1030,2 hPa 0,0 l/m 2,7 km/h (1 Bft) N-NO 22 17,0 C 22,4 C 3,2 km/h (1 Bft)
05.07.2013 15:55 20,2 C 81 % 1030,2 hPa 0,0 l/m 2,3 km/h (1 Bft) O-NO 67 16,8 C 22,4 C 2,3 km/h (1 Bft)
05.07.2013 16:00 20,2 C 82 % 1030,2 hPa 0,0 l/m 1,9 km/h (1 Bft) NO 45 17,0 C 22,4 C 0,0 km/h (0 Bft)
05.07.2013 16:05 20,4 C 83 % 1030,2 hPa 0,0 l/m 1,4 km/h (1 Bft) W-NW 292 17,4 C 22,4 C 2,1 km/h (1 Bft)
05.07.2013 16:10 20,1 C 80 % 1030,2 hPa 0,0 l/m 1,0 km/h (0 Bft) O 90 16,5 C 22,6 C 2,1 km/h (1 Bft)
05.07.2013 16:15 20,3 C 81 % 1030,2 hPa 0,0 l/m 1,8 km/h (1 Bft) W-NW 292 16,9 C 22,6 C 3,7 km/h (1 Bft)
05.07.2013 16:20 20,3 C 79 % 1030,2 hPa 0,0 l/m 1,8 km/h (1 Bft) O-SO 112 16,5 C 22,3 C 1,8 km/h (1 Bft)
05.07.2013 16:25 20,2 C 77 % 1030,1 hPa 0,0 l/m 1,3 km/h (1 Bft) N-NO 22 16,0 C 22,4 C 0,0 km/h (0 Bft)
05.07.2013 16:30 20,0 C 77 % 1030,1 hPa 0,0 l/m 0,5 km/h (0 Bft) W-SW 247 15,8 C 22,3 C 1,6 km/h (1 Bft)
05.07.2013 16:35 19,8 C 78 % 1030,1 hPa 0,0 l/m 0,8 km/h (0 Bft) W 270 15,8 C 22,1 C 2,3 km/h (1 Bft)
05.07.2013 16:40 19,6 C 74 % 1030,1 hPa 0,0 l/m 2,7 km/h (1 Bft) W 270 14,8 C 21,3 C 4,7 km/h (1 Bft)
05.07.2013 16:45 19,6 C 74 % 1029,9 hPa 0,0 l/m 3,5 km/h (1 Bft) W-SW 247 14,8 C 20,9 C 2,7 km/h (1 Bft)
05.07.2013 16:50 19,9 C 75 % 1029,9 hPa 0,0 l/m 2,7 km/h (1 Bft) W-NW 292 15,3 C 20,7 C 2,9 km/h (1 Bft)
05.07.2013 16:55 19,9 C 74 % 1029,9 hPa 0,0 l/m 1,8 km/h (1 Bft) W-SW 247 15,1 C 20,9 C 4,0 km/h (1 Bft)
05.07.2013 17:00 19,9 C 73 % 1029,9 hPa 0,0 l/m 1,8 km/h (1 Bft) W-SW 247 14,9 C 21,0 C 2,3 km/h (1 Bft)
05.07.2013 17:05 19,9 C 73 % 1029,8 hPa 0,0 l/m 2,6 km/h (1 Bft) W-SW 247 14,9 C 21,0 C 3,1 km/h (1 Bft)
05.07.2013 17:10 19,9 C 73 % 1029,8 hPa 0,0 l/m 1,9 km/h (1 Bft) W-SW 247 14,9 C 21,2 C 0,0 km/h (0 Bft)
05.07.2013 17:15 19,9 C 73 % 1029,8 hPa 0,0 l/m 1,3 km/h (1 Bft) W 270 14,9 C 21,6 C 2,6 km/h (1 Bft)
05.07.2013 17:20 20,0 C 71 % 1029,8 hPa 0,0 l/m 1,3 km/h (1 Bft) N-NW 337 14,6 C 21,6 C 1,8 km/h (1 Bft)
05.07.2013 17:25 20,2 C 72 % 1029,7 hPa 0,0 l/m 1,3 km/h (1 Bft) W-SW 247 15,0 C 21,8 C 0,0 km/h (0 Bft)
05.07.2013 17:30 20,3 C 71 % 1029,7 hPa 0,0 l/m 0,8 km/h (0 Bft) N 360 14,9 C 22,3 C 4,5 km/h (1 Bft)
05.07.2013 17:35 20,0 C 70 % 1029,7 hPa 0,0 l/m 1,6 km/h (1 Bft) N-NW 337 14,4 C 22,5 C 5,0 km/h (1 Bft)
05.07.2013 17:40 20,1 C 71 % 1029,7 hPa 0,0 l/m 2,3 km/h (1 Bft) S-SW 202 14,7 C 22,6 C 2,3 km/h (1 Bft)
05.07.2013 17:45 19,9 C 70 % 1029,7 hPa 0,0 l/m 2,1 km/h (1 Bft) N-NW 337 14,3 C 22,7 C 0,0 km/h (0 Bft)
05.07.2013 17:50 20,0 C 69 % 1029,7 hPa 0,0 l/m 1,8 km/h (1 Bft) W-SW 247 14,1 C 23,3 C 1,9 km/h (1 Bft)
05.07.2013 17:55 20,2 C 70 % 1029,7 hPa 0,0 l/m 1,3 km/h (1 Bft) W-NW 292 14,5 C 23,4 C 0,0 km/h (0 Bft)
05.07.2013 18:00 20,1 C 72 % 1029,7 hPa 0,0 l/m 0,5 km/h (0 Bft) O 90 14,9 C 23,6 C 0,0 km/h (0 Bft)
05.07.2013 18:05 20,1 C 71 % 1029,8 hPa 0,0 l/m 0,5 km/h (0 Bft) N-NW 337 14,7 C 24,2 C 2,3 km/h (1 Bft)
05.07.2013 18:10 20,0 C 70 % 1029,8 hPa 0,0 l/m 1,9 km/h (1 Bft) N-NW 337 14,4 C 24,0 C 2,6 km/h (1 Bft)
05.07.2013 18:15 20,1 C 70 % 1029,8 hPa 0,0 l/m 2,4 km/h (1 Bft) NW 315 14,5 C 24,1 C 1,8 km/h (1 Bft)
05.07.2013 18:20 20,2 C 68 % 1029,8 hPa 0,0 l/m 1,9 km/h (1 Bft) O-SO 112 14,1 C 24,1 C 0,0 km/h (0 Bft)
05.07.2013 18:25 20,6 C 69 % 1029,9 hPa 0,0 l/m 1,0 km/h (0 Bft) W-NW 292 14,7 C 24,7 C 2,3 km/h (1 Bft)
05.07.2013 18:30 20,6 C 66 % 1029,9 hPa 0,0 l/m 1,3 km/h (1 Bft) N-NO 22 14,0 C 25,6 C 2,7 km/h (1 Bft)
05.07.2013 18:35 20,2 C 67 % 1029,9 hPa 0,0 l/m 1,4 km/h (1 Bft) N-NO 22 13,9 C 25,5 C 2,6 km/h (1 Bft)
05.07.2013 18:40 20,2 C 69 % 1029,9 hPa 0,0 l/m 1,4 km/h (1 Bft) W-SW 247 14,3 C 23,7 C 2,9 km/h (1 Bft)
05.07.2013 18:45 20,6 C 70 % 1029,6 hPa 0,0 l/m 1,9 km/h (1 Bft) S-SW 202 14,9 C 23,3 C 0,0 km/h (0 Bft)
05.07.2013 18:50 20,9 C 66 % 1029,6 hPa 0,0 l/m 1,6 km/h (1 Bft) N-NO 22 14,3 C 24,4 C 1,9 km/h (1 Bft)
05.07.2013 18:55 20,8 C 66 % 1029,6 hPa 0,0 l/m 1,4 km/h (1 Bft) N-NW 337 14,2 C 25,5 C 0,0 km/h (0 Bft)
05.07.2013 19:00 20,6 C 67 % 1029,6 hPa 0,0 l/m 2,4 km/h (1 Bft) W-SW 247 14,3 C 25,9 C 5,0 km/h (1 Bft)
05.07.2013 19:05 20,6 C 68 % 1029,6 hPa 0,0 l/m 2,4 km/h (1 Bft) W-SW 247 14,5 C 25,5 C 5,6 km/h (1 Bft)
05.07.2013 19:10 20,3 C 68 % 1029,6 hPa 0,0 l/m 3,2 km/h (1 Bft) W-NW 292 14,2 C 23,8 C 5,3 km/h (1 Bft)
05.07.2013 19:15 20,0 C 69 % 1029,6 hPa 0,0 l/m 4,2 km/h (1 Bft) W-NW 292 14,1 C 22,4 C 4,3 km/h (1 Bft)
05.07.2013 19:20 19,8 C 70 % 1029,6 hPa 0,0 l/m 2,7 km/h (1 Bft) W-SW 247 14,2 C 21,5 C 0,0 km/h (0 Bft)
05.07.2013 19:25 19,7 C 71 % 1029,2 hPa 0,0 l/m 1,3 km/h (1 Bft) W 270 14,3 C 21,1 C 0,0 km/h (0 Bft)
05.07.2013 19:30 19,3 C 73 % 1029,2 hPa 0,0 l/m 0,0 km/h (0 Bft) W-SW 247 14,3 C 20,8 C 0,0 km/h (0 Bft)
05.07.2013 19:35 19,1 C 73 % 1029,2 hPa 0,0 l/m 0,0 km/h (0 Bft) W-SW 247 14,1 C 20,8 C 0,0 km/h (0 Bft)
05.07.2013 19:40 19,1 C 74 % 1029,2 hPa 0,0 l/m 0,2 km/h (0 Bft) W-NW 292 14,4 C 20,7 C 1,6 km/h (1 Bft)
05.07.2013 19:45 19,0 C 74 % 1028,8 hPa 0,0 l/m 0,5 km/h (0 Bft) W 270 14,3 C 20,5 C 0,0 km/h (0 Bft)
05.07.2013 19:50 18,9 C 74 % 1028,8 hPa 0,0 l/m 0,8 km/h (0 Bft) W 270 14,2 C 20,4 C 2,3 km/h (1 Bft)
05.07.2013 19:55 18,9 C 74 % 1028,8 hPa 0,0 l/m 0,6 km/h (0 Bft) W 270 14,2 C 20,3 C 0,0 km/h (0 Bft)
05.07.2013 20:00 19,0 C 74 % 1028,8 hPa 0,0 l/m 0,5 km/h (0 Bft) W-SW 247 14,3 C 20,1 C 0,0 km/h (0 Bft)
05.07.2013 20:05 18,7 C 75 % 1029,4 hPa 0,0 l/m 0,2 km/h (0 Bft) SW 225 14,2 C 20,3 C 0,0 km/h (0 Bft)
05.07.2013 20:10 18,3 C 77 % 1029,4 hPa 0,0 l/m 0,5 km/h (0 Bft) SW 225 14,2 C 20,2 C 1,6 km/h (1 Bft)
05.07.2013 20:15 18,3 C 77 % 1029,4 hPa 0,0 l/m 1,1 km/h (1 Bft) SW 225 14,2 C 20,1 C 1,8 km/h (1 Bft)
05.07.2013 20:20 18,4 C 78 % 1029,4 hPa 0,0 l/m 1,1 km/h (1 Bft) SW 225 14,5 C 20,2 C 0,0 km/h (0 Bft)
05.07.2013 20:25 18,5 C 78 % 1029,4 hPa 0,0 l/m 0,6 km/h (0 Bft) W-SW 247 14,6 C 20,6 C 0,0 km/h (0 Bft)
05.07.2013 20:30 18,5 C 79 % 1029,4 hPa 0,0 l/m 0,0 km/h (0 Bft) W-SW 247 14,8 C 21,0 C 0,0 km/h (0 Bft)
05.07.2013 20:35 18,4 C 79 % 1029,4 hPa 0,0 l/m 0,3 km/h (0 Bft) S-SW 202 14,7 C 20,7 C 2,4 km/h (1 Bft)
05.07.2013 20:40 18,1 C 79 % 1029,4 hPa 0,0 l/m 1,4 km/h (1 Bft) SW 225 14,4 C 19,8 C 2,1 km/h (1 Bft)
05.07.2013 20:45 17,9 C 80 % 1029,4 hPa 0,0 l/m 1,8 km/h (1 Bft) S-SW 202 14,4 C 19,2 C 2,3 km/h (1 Bft)
05.07.2013 20:50 17,6 C 81 % 1029,4 hPa 0,0 l/m 1,9 km/h (1 Bft) SW 225 14,3 C 18,5 C 2,7 km/h (1 Bft)
05.07.2013 20:55 17,5 C 80 % 1029,4 hPa 0,0 l/m 1,8 km/h (1 Bft) SW 225 14,0 C 18,3 C 0,0 km/h (0 Bft)
05.07.2013 21:00 17,4 C 81 % 1029,4 hPa 0,0 l/m 1,3 km/h (1 Bft) SW 225 14,1 C 17,9 C 0,0 km/h (0 Bft)
05.07.2013 21:05 17,2 C 82 % 1029,6 hPa 0,0 l/m 1,6 km/h (1 Bft) S-SW 202 14,1 C 17,7 C 3,5 km/h (1 Bft)
05.07.2013 21:10 17,2 C 83 % 1029,6 hPa 0,0 l/m 2,3 km/h (1 Bft) SW 225 14,3 C 17,5 C 2,9 km/h (1 Bft)
05.07.2013 21:15 17,0 C 84 % 1029,6 hPa 0,0 l/m 2,1 km/h (1 Bft) N 360 14,3 C 17,4 C 1,6 km/h (1 Bft)
05.07.2013 21:20 17,0 C 84 % 1029,6 hPa 0,0 l/m 0,8 km/h (0 Bft) N-NO 22 14,3 C 17,3 C 0,0 km/h (0 Bft)
05.07.2013 21:25 17,0 C 84 % 1029,6 hPa 0,0 l/m 1,1 km/h (1 Bft) N-NO 22 14,3 C 17,2 C 2,9 km/h (1 Bft)
05.07.2013 21:30 16,8 C 85 % 1029,6 hPa 0,0 l/m 1,9 km/h (1 Bft) O-NO 67 14,3 C 17,0 C 0,0 km/h (0 Bft)
05.07.2013 21:35 16,8 C 85 % 1029,6 hPa 0,0 l/m 2,4 km/h (1 Bft) NO 45 14,3 C 16,9 C 4,2 km/h (1 Bft)
05.07.2013 21:40 16,7 C 85 % 1029,6 hPa 0,0 l/m 2,3 km/h (1 Bft) NO 45 14,2 C 16,8 C 4,3 km/h (1 Bft)
05.07.2013 21:45 16,6 C 85 % 1029,6 hPa 0,0 l/m 2,1 km/h (1 Bft) O-SO 112 14,1 C 16,7 C 0,0 km/h (0 Bft)
05.07.2013 21:50 16,6 C 85 % 1029,6 hPa 0,0 l/m 1,1 km/h (1 Bft) O 90 14,1 C 16,7 C 2,1 km/h (1 Bft)
05.07.2013 21:55 16,5 C 85 % 1029,6 hPa 0,0 l/m 0,8 km/h (0 Bft) NO 45 14,0 C 16,6 C 0,0 km/h (0 Bft)
05.07.2013 22:00 16,4 C 85 % 1029,6 hPa 0,0 l/m 1,6 km/h (1 Bft) O 90 13,9 C 16,4 C 2,7 km/h (1 Bft)
05.07.2013 22:05 16,4 C 85 % 1029,9 hPa 0,0 l/m 1,4 km/h (1 Bft) O-NO 67 13,9 C 16,4 C 2,1 km/h (1 Bft)
05.07.2013 22:10 16,3 C 85 % 1029,9 hPa 0,0 l/m 1,1 km/h (1 Bft) O-SO 112 13,8 C 16,3 C 0,0 km/h (0 Bft)
05.07.2013 22:15 16,2 C 85 % 1029,9 hPa 0,0 l/m 0,6 km/h (0 Bft) O 90 13,7 C 16,3 C 0,0 km/h (0 Bft)
05.07.2013 22:20 16,2 C 85 % 1029,9 hPa 0,0 l/m 0,3 km/h (0 Bft) NO 45 13,7 C 16,2 C 1,6 km/h (1 Bft)
05.07.2013 22:25 16,2 C 84 % 1030,2 hPa 0,0 l/m 0,8 km/h (0 Bft) O-SO 112 13,5 C 16,1 C 0,0 km/h (0 Bft)
05.07.2013 22:30 16,2 C 84 % 1030,2 hPa 0,0 l/m 1,6 km/h (1 Bft) O-NO 67 13,5 C 16,0 C 2,6 km/h (1 Bft)
05.07.2013 22:35 16,0 C 85 % 1030,2 hPa 0,0 l/m 2,1 km/h (1 Bft) SO 135 13,5 C 15,9 C 3,4 km/h (1 Bft)
05.07.2013 22:40 16,0 C 85 % 1030,2 hPa 0,0 l/m 3,4 km/h (1 Bft) O-SO 112 13,5 C 15,9 C 3,2 km/h (1 Bft)
05.07.2013 22:45 16,0 C 85 % 1030,2 hPa 0,0 l/m 3,7 km/h (1 Bft) O 90 13,5 C 15,9 C 4,5 km/h (1 Bft)
05.07.2013 22:50 16,0 C 85 % 1030,2 hPa 0,0 l/m 3,5 km/h (1 Bft) NO 45 13,5 C 15,9 C 4,7 km/h (1 Bft)
05.07.2013 22:55 16,0 C 86 % 1030,2 hPa 0,0 l/m 3,5 km/h (1 Bft) NO 45 13,7 C 15,9 C 3,2 km/h (1 Bft)
05.07.2013 23:00 16,1 C 86 % 1030,2 hPa 0,0 l/m 2,9 km/h (1 Bft) O 90 13,8 C 16,0 C 1,8 km/h (1 Bft)
05.07.2013 23:05 16,0 C 86 % 1030,2 hPa 0,0 l/m 2,7 km/h (1 Bft) NO 45 13,7 C 15,9 C 3,4 km/h (1 Bft)
05.07.2013 23:10 15,9 C 86 % 1030,2 hPa 0,0 l/m 1,8 km/h (1 Bft) O-NO 67 13,6 C 15,9 C 0,0 km/h (0 Bft)
05.07.2013 23:15 15,9 C 87 % 1030,2 hPa 0,0 l/m 1,8 km/h (1 Bft) O 90 13,7 C 15,9 C 3,1 km/h (1 Bft)
05.07.2013 23:20 15,9 C 87 % 1030,2 hPa 0,0 l/m 2,7 km/h (1 Bft) O 90 13,7 C 15,9 C 3,1 km/h (1 Bft)
05.07.2013 23:25 15,9 C 87 % 1030,4 hPa 0,0 l/m 3,4 km/h (1 Bft) O-NO 67 13,7 C 15,8 C 3,2 km/h (1 Bft)
05.07.2013 23:30 15,9 C 87 % 1030,4 hPa 0,0 l/m 1,9 km/h (1 Bft) SO 135 13,7 C 15,8 C 0,0 km/h (0 Bft)
05.07.2013 23:35 15,9 C 87 % 1030,4 hPa 0,0 l/m 0,6 km/h (0 Bft) SO 135 13,7 C 15,8 C 0,0 km/h (0 Bft)
05.07.2013 23:40 15,7 C 87 % 1030,4 hPa 0,0 l/m 0,0 km/h (0 Bft) O-NO 67 13,5 C 15,7 C 0,0 km/h (0 Bft)
05.07.2013 23:45 15,7 C 87 % 1030,2 hPa 0,0 l/m 0,0 km/h (0 Bft) O 90 13,5 C 15,7 C 0,0 km/h (0 Bft)
05.07.2013 23:50 15,6 C 87 % 1030,2 hPa 0,0 l/m 0,0 km/h (0 Bft) O-NO 67 13,4 C 15,6 C 0,0 km/h (0 Bft)
05.07.2013 23:55 15,6 C 87 % 1030,2 hPa 0,0 l/m 0,0 km/h (0 Bft) NO 45 13,4 C 15,5 C 0,0 km/h (0 Bft)
_ Min-Zeit 07:25 18:55 04:40 - 23:55 - - 07:25 07:25 23:55
Minimum _ 13,6 C 66 % 1027,4 hPa - 0,0 km/h (0 Bft) - - 12,8 C 13,7 C 0,0 km/h (0 Bft)
_ Max-Zeit 18:50 11:45 15:00 07:10 13:10 - - 15:15 19:00 13:40
Maximum _ 20,9 C 95 % 1030,7 hPa 1,4 l/m 4,3 km/h
N-NO (1 Bft)
- - 18,1 C 25,9 C 8,9 km/h
NW (2 Bft)
Durchschnitt _ 16,4 C 88 % 1029,1 hPa #15,1 l/m 1,0 km/h (0 Bft) W-SW - 14,3 C 17,5 C 1,4 km/h (1 Bft)